Content
SEND FEEDBACK

Daily
Averages
Monthly
Summary
United States of America

PLATTE, SOUTH DAKOTA


Home > North America > United States > South Dakota
Elevation: 1699 feet     Latitude: 43 30N     Longitude: 099 04W

WEATHER
 
SELECT A DAY
Number of Records: 188,776;   Date Range: 1/1/95 - 12/16/14
 
SHARE

PRINT THIS DATA

[ ← Previous Day ]
WEATHER ALMANAC - NOVEMBER 13, 2013
[ Next Day → ]
[ °C ]   °F
Weather ElementAverageHighLow
Temperature45.4 °F62.1 °F (2:52 pm)28.9 °F (4:52 am)
Dewpoint32 °F36 °F (4:52 pm)25 °F (1:52 am)
Humidity62.5 %85 % (4:52 am)35 % (2:52 pm)
Barometer30.05 in30.24 in (1:52 am)29.93 in (11:52 pm)
Wind Speed6 mph8.1 mph (1:52 am)
Weather ElementAverage
Wind DirectionWSW (263.2 °)

Weather ElementTotal
Precipitation---
Heating Degree Days19.5 (Base 65)
Averaged from 22 records on November 13, 2013
WEATHER CONDITIONS BREAKOUT
WIND DIRECTION BREAKOUT
WEATHER BY HOUR - NOVEMBER 13, 2013
[ °C ]   °F
Local TimeTemperatureDewpointHumidityBarometerVisibilityWind DirectionWind SpeedGust SpeedPrecipitationEventsConditions
1:52 AM30.0 °F25.0 °F82 %30.24 inSouth (170°)8.1 mph
2:52 AM32.0 °F27.0 °F82 %30.21 inSSE (160°)4.6 mph
3:52 AM33.1 °F28.0 °F82 %30.17 inSSW (210°)8.1 mph
4:52 AM28.9 °F25.0 °F85 %30.16 inSouth (190°)6.9 mph
5:52 AM30.9 °F27.0 °F85 %30.14 inSW (220°)8.1 mph
6:52 AM33.1 °F28.0 °F82 %30.14 inSW (220°)5.8 mph
7:52 AM32.0 °F28.0 °F85 %30.12 inSW (220°)8.1 mph
8:52 AM39.9 °F32.0 °F73 %30.11 inWSW (240°)5.8 mph
9:52 AM45.0 °F32.0 °F60 %30.10 inWest (260°)5.8 mph
11:52 AM54.0 °F32.0 °F43 %30.05 inWest (280°)8.1 mph
12:52 PM55.9 °F33.1 °F42 %30.02 inNW (310°)5.8 mph
1:52 PM60.1 °F34.0 °F38 %30.00 inWest (280°)6.9 mph
2:52 PM62.1 °F34.0 °F35 %29.98 inNW (310°)5.8 mph
3:52 PM61.0 °F35.1 °F38 %29.97 inWNW (300°)4.6 mph
4:52 PM53.1 °F36.0 °F52 %29.97 inNW (310°)5.8 mph
5:52 PM52.0 °F35.1 °F53 %29.97 inNNW (330°)4.6 mph
6:52 PM53.1 °F35.1 °F50 %29.97 inNNW (340°)3.5 mph
7:52 PM51.1 °F35.1 °F54 %29.97 inWNW (300°)4.6 mph
8:52 PM46.9 °F35.1 °F63 %29.96 inNW (310°)4.6 mph
9:52 PM48.0 °F36.0 °F63 %29.97 inWNW (290°)5.8 mph
10:52 PM50.0 °F36.0 °F59 %29.94 inNW (310°)5.8 mph
11:52 PM46.0 °F36.0 °F68 %29.93 inSW (230°)4.6 mph
Hourly data recorded from K9V9, located miles away from Platte, South Dakota







STORIES FROM OUR PARTNERS